When you browse on this site, cookies collect data to enhance your experience and personalize the content and advertising you see.
Visit our Privacy Policy to learn more. By continuing to use the site, you agree to this use of cookies and data.
  • In Portugal
  • List of Countries
  • For 7 days
  • Water Temperature
  • Satellite Maps
  • Weather Map
  • Weather Widgets
  • user-avatar
    Login

    Hourly Weather Przybenice

    Today, 20 January, Sunday

    Time Temperature Precipitation Wind Pressure Humidity
    00:00 -3°C° 0 mm 1 mps 744 mmHg 81%
    01:00 -3°C° 0 mm 1 mps 744 mmHg 79%
    02:00 -3°C° 0 mm 1 mps 744 mmHg 80%
    03:00 -4°C° 0 mm 1 mps 743 mmHg 80%
    04:00 -4°C° 0 mm 1 mps 743 mmHg 81%
    05:00 -4°C° 0 mm 1 mps 743 mmHg 81%
    06:00 -4°C° 0 mm 1 mps 743 mmHg 82%
    07:00 -4°C° 0 mm 1 mps 743 mmHg 82%
    08:00 -4°C° 0 mm 1 mps 743 mmHg 80%
    09:00 -3°C° 0 mm 1 mps 743 mmHg 78%
    10:00 -3°C° 0 mm 1 mps 743 mmHg 76%
    11:00 -2°C° 0 mm 1 mps 743 mmHg 73%
    12:00 -2°C° 0 mm 1 mps 742 mmHg 70%
    13:00 -1°C° 0 mm 1 mps 742 mmHg 67%
    14:00 -1°C° 0 mm 1 mps 742 mmHg 70%
    15:00 -2°C° 0 mm 1 mps 742 mmHg 72%
    16:00 -2°C° 0 mm 1 mps 742 mmHg 75%
    17:00 -2°C° 0 mm 1 mps 743 mmHg 76%
    18:00 -3°C° 0 mm 1 mps 743 mmHg 78%
    19:00 -4°C° 0 mm 0 mps 743 mmHg 79%
    20:00 -3°C° 0 mm 1 mps 744 mmHg 79%
    21:00 -3°C° 0 mm 1 mps 744 mmHg 79%
    22:00 -3°C° 0 mm 1 mps 744 mmHg 79%
    23:00 -4°C° 0 mm 1 mps 745 mmHg 79%

    Tomorrow, 21 January, Monday

    Time Temperature Precipitation Wind Pressure Humidity
    00:00 -4°C° 0 mm 1 mps 745 mmHg 79%
    01:00 -4°C° 0 mm 1 mps 745 mmHg 79%
    02:00 -4°C° 0 mm 1 mps 745 mmHg 79%
    03:00 -4°C° 0 mm 1 mps 745 mmHg 79%
    04:00 -4°C° 0 mm 1 mps 745 mmHg 79%
    05:00 -6°C° 0 mm 2 mps 746 mmHg 79%
    06:00 -6°C° 0 mm 2 mps 746 mmHg 78%
    07:00 -7°C° 0 mm 2 mps 746 mmHg 78%
    08:00 -6°C° 0 mm 2 mps 746 mmHg 75%
    09:00 -5°C° 0 mm 2 mps 746 mmHg 73%
    10:00 -5°C° 0 mm 2 mps 747 mmHg 70%
    11:00 -2°C° 0 mm 1 mps 746 mmHg 67%
    12:00 -1°C° 0 mm 1 mps 746 mmHg 65%
    13:00 0°C° 0 mm 1 mps 746 mmHg 63%
    14:00 -1°C° 0 mm 1 mps 746 mmHg 65%
    15:00 -2°C° 0 mm 0 mps 746 mmHg 68%
    16:00 -3°C° 0 mm 0 mps 746 mmHg 70%
    17:00 -3°C° 0 mm 0 mps 746 mmHg 71%
    18:00 -2°C° 0 mm 1 mps 746 mmHg 72%
    19:00 -3°C° 0 mm 1 mps 746 mmHg 73%
    20:00 -3°C° 0 mm 1 mps 745 mmHg 73%
    21:00 -3°C° 0 mm 1 mps 745 mmHg 74%
    22:00 -3°C° 0 mm 1 mps 745 mmHg 75%
    23:00 -4°C° 0 mm 1 mps 745 mmHg 75%

    Day after tomorrow, 22 January, Tuesday

    Time Temperature Precipitation Wind Pressure Humidity
    00:00 -4°C° 0 mm 1 mps 745 mmHg 75%
    01:00 -4°C° 0 mm 1 mps 744 mmHg 75%
    02:00 -4°C° 0 mm 1 mps 744 mmHg 75%
    03:00 -4°C° 0 mm 1 mps 743 mmHg 74%
    04:00 -6°C° 0 mm 1 mps 743 mmHg 74%
    05:00 -6°C° 0 mm 1 mps 743 mmHg 73%
    06:00 -6°C° 0 mm 1 mps 743 mmHg 72%
    07:00 -6°C° 0 mm 1 mps 742 mmHg 71%
    08:00 -4°C° 0 mm 1 mps 742 mmHg 68%
    09:00 -3°C° 0 mm 1 mps 742 mmHg 65%
    10:00 -3°C° 0 mm 1 mps 742 mmHg 62%
    11:00 -2°C° 0 mm 1 mps 741 mmHg 60%
    12:00 -1°C° 0 mm 1 mps 741 mmHg 58%
    13:00 -1°C° 0 mm 1 mps 740 mmHg 56%
    14:00 -1°C° 0 mm 1 mps 740 mmHg 60%
    15:00 -4°C° 0 mm 2 mps 739 mmHg 64%
    16:00 -4°C° 0 mm 2 mps 739 mmHg 68%
    17:00 -4°C° 0 mm 2 mps 738 mmHg 73%
    18:00 -5°C° 0 mm 2 mps 738 mmHg 77%
    19:00 -6°C° 0 mm 3 mps 738 mmHg 82%
    20:00 -6°C° 0 mm 3 mps 738 mmHg 83%
    21:00 -6°C° 0 mm 3 mps 737 mmHg 84%
    22:00 -7°C° 0 mm 3 mps 737 mmHg 86%
    23:00 -7°C° 0 mm 3 mps 737 mmHg 86%

    23 January, Wednesday

    Time Temperature Precipitation Wind Pressure Humidity
    00:00 -7°C° 0 mm 3 mps 736 mmHg 87%
    01:00 -8°C° 0 mm 4 mps 736 mmHg 87%
    02:00 -8°C° 0 mm 4 mps 735 mmHg 88%
    03:00 -9°C° 0 mm 4 mps 735 mmHg 89%
    04:00 -9°C° 0 mm 4 mps 734 mmHg 90%
    05:00 -9°C° 0 mm 4 mps 734 mmHg 90%
    06:00 -10°C° 0 mm 5 mps 734 mmHg 89%
    07:00 -10°C° 0 mm 5 mps 734 mmHg 89%
    08:00 -8°C° 0 mm 5 mps 734 mmHg 87%
    09:00 -8°C° 0 mm 5 mps 734 mmHg 84%
    10:00 -7°C° 0 mm 5 mps 734 mmHg 82%
    11:00 -6°C° 0 mm 5 mps 734 mmHg 81%
    12:00 -5°C° 0 mm 5 mps 733 mmHg 80%
    13:00 -4°C° 0 mm 5 mps 733 mmHg 79%
    14:00 -3°C° 0 mm 4 mps 733 mmHg 83%
    15:00 -3°C° 0 mm 4 mps 733 mmHg 86%
    16:00 -3°C° 0 mm 4 mps 733 mmHg 89%
    17:00 -2°C° 0 mm 3 mps 733 mmHg 91%
    18:00 -2°C° 0 mm 3 mps 733 mmHg 92%
    19:00 -2°C° 0 mm 3 mps 733 mmHg 94%
    20:00 -2°C° 0 mm 3 mps 733 mmHg 95%
    21:00 -2°C° 0 mm 3 mps 733 mmHg 95%
    22:00 -2°C° 0 mm 3 mps 734 mmHg 96%
    23:00 -2°C° 0.1 mm 2 mps 734 mmHg 96%

    24 January, Thursday

    Time Temperature Precipitation Wind Pressure Humidity
    00:00 -2°C° 0.1 mm 2 mps 734 mmHg 96%
    01:00 0°C° 0.1 mm 1 mps 734 mmHg 97%
    02:00 0°C° 0.1 mm 1 mps 734 mmHg 97%
    03:00 0°C° 0.1 mm 1 mps 734 mmHg 97%
    04:00 0°C° 0.1 mm 1 mps 734 mmHg 97%
    05:00 0°C° 0.1 mm 1 mps 734 mmHg 97%
    06:00 0°C° 0.1 mm 1 mps 734 mmHg 96%
    07:00 0°C° 0.1 mm 1 mps 734 mmHg 96%
    08:00 0°C° 0.1 mm 1 mps 734 mmHg 95%
    09:00 0°C° 0.1 mm 1 mps 735 mmHg 94%
    10:00 +1°C° 0.1 mm 1 mps 735 mmHg 93%
    11:00 +1°C° 0.1 mm 1 mps 735 mmHg 93%
    12:00 +1°C° 0.1 mm 1 mps 735 mmHg 93%
    13:00 +1°C° 0.1 mm 2 mps 735 mmHg 92%
    14:00 -1°C° 0.1 mm 2 mps 735 mmHg 93%
    15:00 -1°C° 0.1 mm 2 mps 735 mmHg 94%
    16:00 -1°C° 0.1 mm 2 mps 735 mmHg 95%
    17:00 -1°C° 0.1 mm 2 mps 735 mmHg 95%
    18:00 -1°C° 0.1 mm 2 mps 736 mmHg 95%
    19:00 -1°C° 0.1 mm 2 mps 736 mmHg 95%
    20:00 -1°C° 0.1 mm 2 mps 736 mmHg 95%
    21:00 -1°C° 0.1 mm 2 mps 736 mmHg 94%
    22:00 -1°C° 0.1 mm 3 mps 737 mmHg 94%
    23:00 -1°C° 0.1 mm 3 mps 737 mmHg 93%

    25 January, Friday

    Time Temperature Precipitation Wind Pressure Humidity
    00:00 -2°C° 0.1 mm 3 mps 737 mmHg 93%
    01:00 -2°C° 0.1 mm 3 mps 737 mmHg 93%
    02:00 -2°C° 0.1 mm 3 mps 737 mmHg 93%
    03:00 -2°C° 0.1 mm 3 mps 737 mmHg 93%
    04:00 -2°C° 0.1 mm 3 mps 737 mmHg 92%
    05:00 -2°C° 0.1 mm 3 mps 737 mmHg 92%
    06:00 -3°C° 0.1 mm 4 mps 738 mmHg 92%
    07:00 -3°C° 0.1 mm 4 mps 738 mmHg 91%
    08:00 -3°C° 0.1 mm 4 mps 738 mmHg 91%
    09:00 -3°C° 0.1 mm 4 mps 739 mmHg 90%
    10:00 -3°C° 0.1 mm 4 mps 739 mmHg 89%
    11:00 -2°C° 0.1 mm 4 mps 739 mmHg 88%
    12:00 -2°C° 0.1 mm 4 mps 739 mmHg 87%
    13:00 -2°C° 0.1 mm 4 mps 739 mmHg 86%
    14:00 -3°C° 0.1 mm 4 mps 740 mmHg 86%
    15:00 -3°C° 0.1 mm 4 mps 740 mmHg 86%
    16:00 -3°C° 0.1 mm 4 mps 740 mmHg 86%
    17:00 -3°C° 0.1 mm 4 mps 741 mmHg 87%
    18:00 -3°C° 0.1 mm 4 mps 741 mmHg 87%
    19:00 -4°C° 0.1 mm 4 mps 742 mmHg 87%
    20:00 -4°C° 0.1 mm 4 mps 742 mmHg 86%
    21:00 -4°C° 0.1 mm 4 mps 743 mmHg 85%
    22:00 -4°C° 0.1 mm 4 mps 743 mmHg 84%
    23:00 -4°C° 0.1 mm 4 mps 743 mmHg 84%
    Show more